Time,TemperatureF,DewpointF,PressureIn,WindDirection,WindDirectionDegrees,WindSpeedMPH,WindSpeedGustMPH,Humidity,HourlyPrecipIn,Conditions,Clouds,dailyrainin,SoftwareType,DateUTC
2013-03-15 00:00:00,42.8,25.9,30.17,WNW,283,0.0,0.0,51,0.00,RA,,0.00,WeatherDisplay:10.37,2013-03-15 05:00:00,
2013-03-15 00:05:00,42.6,25.2,30.17,WNW,283,0.0,0.0,50,0.00,RA,,0.00,WeatherDisplay:10.37,2013-03-15 05:05:00,
2013-03-15 00:10:00,42.6,25.7,30.17,WNW,283,0.0,0.0,51,0.00,,,0.00,WeatherDisplay:10.37,2013-03-15 05:10:00,
2013-03-15 00:15:00,42.8,26.4,30.18,WNW,283,0.0,0.0,52,0.00,,,0.00,WeatherDisplay:10.37,2013-03-15 05:15:00,
2013-03-15 00:20:00,43.1,26.7,30.18,WNW,283,0.0,1.1,52,0.00,,,0.00,WeatherDisplay:10.37,2013-03-15 05:20:00,
2013-03-15 00:25:00,43.2,27.2,30.18,WNW,283,0.5,2.3,53,0.00,,,0.00,WeatherDisplay:10.37,2013-03-15 05:25:00,
2013-03-15 00:30:00,43.6,27.1,30.18,SSE,161,0.0,0.0,52,0.00,,,0.00,WeatherDisplay:10.37,2013-03-15 05:30:00,
2013-03-15 00:35:00,43.8,28.2,30.18,SSE,161,0.0,0.0,54,0.00,,,0.00,WeatherDisplay:10.37,2013-03-15 05:35:00,
2013-03-15 00:40:00,43.8,27.8,30.18,SSE,161,0.0,0.0,53,0.00,,,0.00,WeatherDisplay:10.37,2013-03-15 05:40:00,
2013-03-15 00:45:00,43.6,27.6,30.17,SSE,161,0.0,1.0,53,0.00,,,0.00,WeatherDisplay:10.37,2013-03-15 05:45:00,
2013-03-15 00:50:00,43.6,27.6,30.17,SSE,161,0.0,1.1,53,0.00,,,0.00,WeatherDisplay:10.37,2013-03-15 05:50:00,
2013-03-15 00:55:00,43.8,27.3,30.17,SSW,203,0.7,3.5,52,0.00,,,0.00,WeatherDisplay:10.37,2013-03-15 05:55:00,
2013-03-15 01:00:00,43.8,27.8,30.17,SSW,198,0.0,3.5,53,0.00,,,0.00,WeatherDisplay:10.37,2013-03-15 06:00:00,
2013-03-15 01:05:00,43.8,27.3,30.17,SSW,198,0.0,0.0,52,0.00,,,0.00,WeatherDisplay:10.37,2013-03-15 06:05:00,
2013-03-15 01:10:00,43.8,27.3,30.17,SSE,160,0.0,1.1,52,0.00,,,0.00,WeatherDisplay:10.37,2013-03-15 06:10:00,
2013-03-15 01:15:00,43.6,27.1,30.17,SSE,160,0.0,0.0,52,0.00,,,0.00,WeatherDisplay:10.37,2013-03-15 06:15:00,
2013-03-15 01:20:00,43.6,26.6,30.17,SSE,160,0.0,0.0,51,0.00,,,0.00,WeatherDisplay:10.37,2013-03-15 06:20:00,
2013-03-15 01:25:00,43.8,27.3,30.17,SSE,160,0.0,0.0,52,0.00,,,0.00,WeatherDisplay:10.37,2013-03-15 06:25:00,
2013-03-15 01:30:00,43.8,27.8,30.16,SSE,160,0.0,1.1,53,0.00,,,0.00,WeatherDisplay:10.37,2013-03-15 06:30:00,
2013-03-15 01:35:00,43.9,28.3,30.16,SW,232,0.4,3.5,54,0.00,,,0.00,WeatherDisplay:10.37,2013-03-15 06:35:00,
2013-03-15 01:40:00,44.1,28.0,30.16,SW,232,0.0,0.0,53,0.00,,,0.00,WeatherDisplay:10.37,2013-03-15 06:40:00,
2013-03-15 01:45:00,44.2,28.6,30.16,South,188,0.0,3.5,54,0.00,,,0.00,WeatherDisplay:10.37,2013-03-15 06:45:00,
2013-03-15 01:50:00,44.2,28.1,30.16,South,184,0.2,2.3,53,0.00,,,0.00,WeatherDisplay:10.37,2013-03-15 06:50:00,
2013-03-15 01:55:00,44.2,28.6,30.16,South,184,0.0,1.1,54,0.00,,,0.00,WeatherDisplay:10.37,2013-03-15 06:55:00,
2013-03-15 02:00:00,44.2,28.1,30.15,SSW,196,0.5,5.8,53,0.00,,,0.00,WeatherDisplay:10.37,2013-03-15 07:00:00,
2013-03-15 02:05:00,44.3,28.7,30.15,SSW,195,0.0,1.1,54,0.00,,,0.00,WeatherDisplay:10.37,2013-03-15 07:05:00,
2013-03-15 02:10:00,44.2,29.0,30.15,SSW,195,0.5,2.3,55,0.00,,,0.00,WeatherDisplay:10.37,2013-03-15 07:10:00,
2013-03-15 02:15:00,44.2,28.1,30.15,SSW,195,0.0,1.1,53,0.00,,,0.00,WeatherDisplay:10.37,2013-03-15 07:15:00,
2013-03-15 02:20:00,44.2,29.5,30.15,SSW,195,0.0,0.0,56,0.00,,,0.00,WeatherDisplay:10.37,2013-03-15 07:20:00,
2013-03-15 02:25:00,44.1,28.0,30.15,SSW,213,0.4,3.5,53,0.00,,,0.00,WeatherDisplay:10.37,2013-03-15 07:25:00,
2013-03-15 02:30:00,44.1,29.4,30.15,SW,218,0.1,2.0,56,0.00,,,0.00,WeatherDisplay:10.37,2013-03-15 07:30:00,
2013-03-15 02:35:00,44.1,28.5,30.15,SW,218,0.0,1.1,54,0.00,,,0.00,WeatherDisplay:10.37,2013-03-15 07:35:00,
2013-03-15 02:40:00,44.1,29.4,30.15,SSE,153,0.2,2.0,56,0.00,,,0.00,WeatherDisplay:10.37,2013-03-15 07:40:00,
2013-03-15 02:45:00,43.9,28.8,30.14,SSE,153,0.0,0.0,55,0.00,,,0.00,WeatherDisplay:10.37,2013-03-15 07:45:00,
2013-03-15 02:50:00,43.6,28.5,30.14,SSW,210,0.0,1.1,55,0.00,,,0.00,WeatherDisplay:10.37,2013-03-15 07:50:00,
2013-03-15 02:55:00,43.5,27.9,30.14,SW,215,0.3,1.1,54,0.00,,,0.00,WeatherDisplay:10.37,2013-03-15 07:55:00,
2013-03-15 03:00:00,43.5,28.8,30.13,SW,216,0.3,3.5,56,0.00,,,0.00,WeatherDisplay:10.37,2013-03-15 08:00:00,
2013-03-15 03:05:00,43.6,28.5,30.13,SW,216,0.0,1.0,55,0.00,,,0.00,WeatherDisplay:10.37,2013-03-15 08:05:00,
2013-03-15 03:10:00,43.8,28.2,30.13,South,174,0.9,3.5,54,0.00,,,0.00,WeatherDisplay:10.37,2013-03-15 08:10:00,
2013-03-15 03:15:00,44.2,27.7,30.13,SSW,207,0.0,1.1,52,0.00,,,0.00,WeatherDisplay:10.37,2013-03-15 08:15:00,
2013-03-15 03:20:00,44.5,27.0,30.13,SW,227,1.2,4.6,50,0.00,,,0.00,WeatherDisplay:10.37,2013-03-15 08:20:00,
2013-03-15 03:25:00,44.9,27.4,30.13,South,172,2.4,5.8,50,0.00,,,0.00,WeatherDisplay:10.37,2013-03-15 08:25:00,
2013-03-15 03:30:00,45.1,27.6,30.13,SSE,162,0.1,2.0,50,0.00,,,0.00,WeatherDisplay:10.37,2013-03-15 08:30:00,
2013-03-15 03:35:00,45.1,28.5,30.13,South,173,0.3,1.1,52,0.00,,,0.00,WeatherDisplay:10.37,2013-03-15 08:35:00,
2013-03-15 03:40:00,44.9,27.4,30.13,SSW,200,1.0,3.5,50,0.00,,,0.00,WeatherDisplay:10.37,2013-03-15 08:40:00,
2013-03-15 03:45:00,44.9,26.9,30.12,South,181,0.9,3.0,49,0.00,,,0.00,WeatherDisplay:10.37,2013-03-15 08:45:00,
2013-03-15 03:50:00,45.1,27.1,30.12,SSW,205,1.9,6.0,49,0.00,,,0.00,WeatherDisplay:10.37,2013-03-15 08:50:00,
2013-03-15 03:55:00,45.2,27.6,30.12,WSW,253,0.0,1.0,50,0.00,,,0.00,WeatherDisplay:10.37,2013-03-15 08:55:00,
2013-03-15 04:00:00,45.1,27.1,30.12,South,183,0.7,3.5,49,0.00,,,0.00,WeatherDisplay:10.37,2013-03-15 09:00:00,
2013-03-15 04:05:00,45.1,27.6,30.12,South,190,0.2,3.0,50,0.00,,,0.00,WeatherDisplay:10.37,2013-03-15 09:05:00,
2013-03-15 04:10:00,45.1,27.1,30.12,SSE,168,1.4,3.5,49,0.00,,,0.00,WeatherDisplay:10.37,2013-03-15 09:10:00,
2013-03-15 04:15:00,45.4,26.8,30.12,South,173,2.1,3.5,48,0.00,,,0.00,WeatherDisplay:10.37,2013-03-15 09:15:00,
2013-03-15 04:20:00,45.5,26.9,30.12,South,190,3.8,6.9,48,0.00,,,0.00,WeatherDisplay:10.37,2013-03-15 09:20:00,
2013-03-15 04:25:00,45.8,26.7,30.12,SSW,192,1.7,5.8,47,0.00,,,0.00,WeatherDisplay:10.37,2013-03-15 09:25:00,
2013-03-15 04:30:00,46.0,26.4,30.12,South,186,0.5,3.5,46,0.00,,,0.00,WeatherDisplay:10.37,2013-03-15 09:30:00,
2013-03-15 04:35:00,46.0,28.4,30.12,South,176,0.7,3.5,50,0.00,,,0.00,WeatherDisplay:10.37,2013-03-15 09:35:00,
2013-03-15 04:40:00,45.8,27.2,30.12,South,188,1.1,3.5,48,0.00,,,0.00,WeatherDisplay:10.37,2013-03-15 09:40:00,
2013-03-15 04:45:00,45.7,26.6,30.11,SSW,209,1.1,3.5,47,0.00,,,0.00,WeatherDisplay:10.37,2013-03-15 09:45:00,
2013-03-15 04:50:00,45.5,25.9,30.11,South,188,2.6,5.8,46,0.00,,,0.00,WeatherDisplay:10.37,2013-03-15 09:50:00,
2013-03-15 04:55:00,45.7,27.1,30.11,SSW,192,0.6,4.0,48,0.00,,,0.00,WeatherDisplay:10.37,2013-03-15 09:55:00,
2013-03-15 05:00:00,45.8,26.7,30.11,South,184,1.2,4.6,47,0.00,,,0.00,WeatherDisplay:10.37,2013-03-15 10:00:00,
2013-03-15 05:05:00,45.8,27.2,30.11,SSW,205,0.3,2.3,48,0.00,,,0.00,WeatherDisplay:10.37,2013-03-15 10:05:00,
2013-03-15 05:10:00,45.8,26.7,30.11,South,189,1.7,4.0,47,0.00,,,0.00,WeatherDisplay:10.37,2013-03-15 10:10:00,
2013-03-15 05:15:00,46.0,26.9,30.11,SSW,195,1.4,3.5,47,0.00,,,0.00,WeatherDisplay:10.37,2013-03-15 10:15:00,
2013-03-15 05:20:00,46.0,27.4,30.11,WSW,237,0.2,5.0,48,0.00,,,0.00,WeatherDisplay:10.37,2013-03-15 10:20:00,
2013-03-15 05:25:00,46.0,26.9,30.11,SSE,164,1.8,4.0,47,0.00,,,0.00,WeatherDisplay:10.37,2013-03-15 10:25:00,
2013-03-15 05:30:00,46.1,27.0,30.11,SSE,148,2.2,6.9,47,0.00,,,0.00,WeatherDisplay:10.37,2013-03-15 10:30:00,
2013-03-15 05:35:00,46.0,27.4,30.11,South,182,1.1,3.5,48,0.00,,,0.00,WeatherDisplay:10.37,2013-03-15 10:35:00,
2013-03-15 05:40:00,46.1,27.5,30.11,South,173,1.7,8.1,48,0.00,,,0.00,WeatherDisplay:10.37,2013-03-15 10:40:00,
2013-03-15 05:45:00,46.1,27.5,30.11,South,190,1.8,4.6,48,0.00,,,0.00,WeatherDisplay:10.37,2013-03-15 10:45:00,
2013-03-15 05:50:00,46.1,27.5,30.11,South,179,1.6,3.5,48,0.00,,,0.00,WeatherDisplay:10.37,2013-03-15 10:50:00,
2013-03-15 05:55:00,46.1,28.5,30.11,SSW,202,0.8,4.0,50,0.00,,,0.00,WeatherDisplay:10.37,2013-03-15 10:55:00,
2013-03-15 06:00:00,45.8,27.7,30.11,South,174,1.3,3.5,49,0.00,,,0.00,WeatherDisplay:10.37,2013-03-15 11:00:00,
2013-03-15 06:05:00,45.8,28.2,30.11,South,171,0.4,6.0,50,0.00,,,0.00,WeatherDisplay:10.37,2013-03-15 11:05:00,
2013-03-15 06:10:00,45.7,27.6,30.11,SE,141,1.2,3.5,49,0.00,,,0.00,WeatherDisplay:10.37,2013-03-15 11:10:00,
2013-03-15 06:15:00,45.5,27.9,30.11,SW,217,3.1,5.8,50,0.00,,,0.00,WeatherDisplay:10.37,2013-03-15 11:15:00,
2013-03-15 06:20:00,45.4,27.8,30.11,South,184,1.9,6.0,50,0.00,,,0.00,WeatherDisplay:10.37,2013-03-15 11:20:00,
2013-03-15 06:25:00,45.4,28.8,30.11,SW,224,0.3,5.8,52,0.00,,,0.00,WeatherDisplay:10.37,2013-03-15 11:25:00,
2013-03-15 06:30:00,45.4,28.8,30.11,South,191,1.2,6.9,52,0.00,,,0.00,WeatherDisplay:10.37,2013-03-15 11:30:00,
2013-03-15 06:35:00,45.4,28.8,30.11,SSE,163,1.2,3.5,52,0.00,,,0.00,WeatherDisplay:10.37,2013-03-15 11:35:00,
2013-03-15 06:40:00,45.4,28.3,30.11,South,177,0.2,3.5,51,0.00,,,0.00,WeatherDisplay:10.37,2013-03-15 11:40:00,
2013-03-15 06:45:00,45.4,28.3,30.11,South,191,1.3,5.0,51,0.00,,,0.00,WeatherDisplay:10.37,2013-03-15 11:45:00,
2013-03-15 06:50:00,45.2,29.1,30.11,SSW,205,1.8,4.6,53,0.00,,,0.00,WeatherDisplay:10.37,2013-03-15 11:50:00,
2013-03-15 06:55:00,45.2,29.1,30.11,SSW,207,0.0,1.1,53,0.00,,,0.00,WeatherDisplay:10.37,2013-03-15 11:55:00,
2013-03-15 07:00:00,45.1,28.5,30.11,South,188,1.4,6.9,52,0.00,,,0.00,WeatherDisplay:10.37,2013-03-15 12:00:00,
2013-03-15 07:05:00,44.9,28.8,30.11,SSW,198,0.4,2.3,53,0.00,,,0.00,WeatherDisplay:10.37,2013-03-15 12:05:00,
2013-03-15 07:10:00,45.1,29.0,30.11,SSW,198,0.5,2.3,53,0.00,,,0.00,WeatherDisplay:10.37,2013-03-15 12:10:00,
2013-03-15 07:15:00,45.2,28.6,30.12,South,187,2.2,5.8,52,0.00,,,0.00,WeatherDisplay:10.37,2013-03-15 12:15:00,
2013-03-15 07:20:00,45.4,29.3,30.12,SW,225,2.8,8.1,53,0.00,,,0.00,WeatherDisplay:10.37,2013-03-15 12:20:00,
2013-03-15 07:25:00,45.7,28.6,30.12,SSW,198,1.5,3.5,51,0.00,,,0.00,WeatherDisplay:10.37,2013-03-15 12:25:00,
2013-03-15 07:30:00,46.0,29.3,30.12,South,185,0.2,3.0,52,0.00,,,0.00,WeatherDisplay:10.37,2013-03-15 12:30:00,
2013-03-15 07:35:00,46.4,28.8,30.12,South,190,2.2,8.1,50,0.00,,,0.00,WeatherDisplay:10.37,2013-03-15 12:35:00,
2013-03-15 07:40:00,46.8,29.1,30.12,SSW,213,1.6,6.0,50,0.00,,,0.00,WeatherDisplay:10.37,2013-03-15 12:40:00,
2013-03-15 07:45:00,47.3,29.6,30.12,WSW,250,1.0,6.0,50,0.00,,,0.00,WeatherDisplay:10.37,2013-03-15 12:45:00,
2013-03-15 07:50:00,47.7,30.0,30.12,SSE,159,0.3,4.0,50,0.00,,,0.00,WeatherDisplay:10.37,2013-03-15 12:50:00,
2013-03-15 07:55:00,48.0,29.7,30.12,SW,215,4.1,6.9,49,0.00,,,0.00,WeatherDisplay:10.37,2013-03-15 12:55:00,
2013-03-15 08:00:00,48.5,29.7,30.12,SSW,206,2.2,4.6,48,0.00,,,0.00,WeatherDisplay:10.37,2013-03-15 13:00:00,
2013-03-15 08:05:00,48.8,30.0,30.12,SW,228,1.3,3.5,48,0.00,,,0.00,WeatherDisplay:10.37,2013-03-15 13:05:00,
2013-03-15 08:10:00,49.1,30.2,30.12,SSW,213,2.5,6.9,48,0.00,,,0.00,WeatherDisplay:10.37,2013-03-15 13:10:00,
2013-03-15 08:15:00,49.4,30.0,30.12,South,174,4.1,11.5,47,0.00,,,0.00,WeatherDisplay:10.37,2013-03-15 13:15:00,
2013-03-15 08:20:00,49.6,31.2,30.12,South,170,0.3,4.0,49,0.00,,,0.00,WeatherDisplay:10.37,2013-03-15 13:20:00,
2013-03-15 08:25:00,49.6,30.2,30.12,SSW,195,0.1,5.8,47,0.00,,,0.00,WeatherDisplay:10.37,2013-03-15 13:25:00,
2013-03-15 08:30:00,49.5,31.1,30.12,SSE,149,2.2,5.8,49,0.00,,,0.00,WeatherDisplay:10.37,2013-03-15 13:30:00,
2013-03-15 08:35:00,49.4,31.5,30.12,SW,219,1.4,8.1,50,0.00,,,0.00,WeatherDisplay:10.37,2013-03-15 13:35:00,
2013-03-15 08:40:00,49.2,31.3,30.12,WSW,242,0.5,2.3,50,0.00,,,0.00,WeatherDisplay:10.37,2013-03-15 13:40:00,
2013-03-15 08:45:00,49.4,32.5,30.12,South,184,0.1,1.1,52,0.00,,,0.00,WeatherDisplay:10.37,2013-03-15 13:45:00,
2013-03-15 08:50:00,49.5,32.1,30.12,South,178,0.7,3.5,51,0.00,,,0.00,WeatherDisplay:10.37,2013-03-15 13:50:00,
2013-03-15 08:55:00,49.8,31.9,30.12,SSW,212,0.8,6.0,50,0.00,,,0.00,WeatherDisplay:10.37,2013-03-15 13:55:00,
2013-03-15 09:00:00,50.1,32.2,30.11,SW,225,0.8,4.0,50,0.00,,,0.00,WeatherDisplay:10.37,2013-03-15 14:00:00,
2013-03-15 09:05:00,50.4,32.4,30.11,SSW,209,2.9,4.6,50,0.00,,,0.00,WeatherDisplay:10.37,2013-03-15 14:05:00,
2013-03-15 09:10:00,50.7,33.7,30.11,SSW,209,0.0,2.3,52,0.00,,,0.00,WeatherDisplay:10.37,2013-03-15 14:10:00,
2013-03-15 09:15:00,51.0,33.5,30.11,NW,325,0.2,5.8,51,0.00,,,0.00,WeatherDisplay:10.37,2013-03-15 14:15:00,
2013-03-15 09:20:00,51.3,33.8,30.11,WSW,238,0.6,5.8,51,0.00,,,0.00,WeatherDisplay:10.37,2013-03-15 14:20:00,
2013-03-15 09:25:00,51.7,34.6,30.11,South,189,0.0,1.0,52,0.00,,,0.00,WeatherDisplay:10.37,2013-03-15 14:25:00,
2013-03-15 09:30:00,52.5,34.9,30.10,SSW,198,1.3,3.5,51,0.00,,,0.00,WeatherDisplay:10.37,2013-03-15 14:30:00,
2013-03-15 09:35:00,53.5,35.3,30.10,South,188,2.4,5.8,50,0.00,,,0.00,WeatherDisplay:10.37,2013-03-15 14:35:00,
2013-03-15 09:40:00,54.2,35.4,30.10,SSE,159,0.0,3.5,49,0.00,,,0.00,WeatherDisplay:10.37,2013-03-15 14:40:00,
2013-03-15 09:45:00,55.1,36.3,30.10,South,191,1.1,5.0,49,0.00,,,0.00,WeatherDisplay:10.37,2013-03-15 14:45:00,
2013-03-15 09:50:00,55.9,35.9,30.10,WSW,250,0.5,4.6,47,0.00,,,0.00,WeatherDisplay:10.37,2013-03-15 14:50:00,
2013-03-15 09:55:00,56.7,36.7,30.10,SSW,196,0.0,0.0,47,0.00,,,0.00,WeatherDisplay:10.37,2013-03-15 14:55:00,
2013-03-15 10:00:00,57.3,36.7,30.10,SSW,200,1.7,4.6,46,0.00,,,0.00,WeatherDisplay:10.37,2013-03-15 15:00:00,
2013-03-15 10:05:00,58.1,36.9,30.10,South,188,3.3,5.8,45,0.00,,,0.00,WeatherDisplay:10.37,2013-03-15 15:05:00,
2013-03-15 10:10:00,58.9,38.7,30.10,South,186,0.1,2.0,47,0.00,,,0.00,WeatherDisplay:10.37,2013-03-15 15:10:00,
2013-03-15 10:15:00,59.8,37.2,30.09,SW,225,2.0,6.9,43,0.00,,,0.00,WeatherDisplay:10.37,2013-03-15 15:15:00,
2013-03-15 10:20:00,60.5,37.9,30.09,WSW,248,2.5,6.9,43,0.00,,,0.00,WeatherDisplay:10.37,2013-03-15 15:20:00,
2013-03-15 10:25:00,61.2,39.1,30.09,SW,236,1.6,7.0,44,0.00,,,0.00,WeatherDisplay:10.37,2013-03-15 15:25:00,
2013-03-15 10:30:00,62.0,40.4,30.09,South,175,0.9,5.8,45,0.00,,,0.00,WeatherDisplay:10.37,2013-03-15 15:30:00,
2013-03-15 10:35:00,62.4,38.4,30.09,SSW,207,1.1,3.5,41,0.00,,,0.00,WeatherDisplay:10.37,2013-03-15 15:35:00,
2013-03-15 10:40:00,62.9,38.8,30.09,SSW,195,0.5,2.3,41,0.00,,,0.00,WeatherDisplay:10.37,2013-03-15 15:40:00,
2013-03-15 10:45:00,63.5,38.7,30.08,SSW,212,1.9,8.1,40,0.00,,,0.00,WeatherDisplay:10.37,2013-03-15 15:45:00,
2013-03-15 10:50:00,63.7,38.9,30.08,South,178,4.0,6.9,40,0.00,,,0.00,WeatherDisplay:10.37,2013-03-15 15:50:00,
2013-03-15 10:55:00,63.9,38.4,30.08,South,173,4.6,8.1,39,0.00,,,0.00,WeatherDisplay:10.37,2013-03-15 15:55:00,
2013-03-15 11:00:00,64.0,38.5,30.08,SSW,200,0.3,3.0,39,0.00,,,0.00,WeatherDisplay:10.37,2013-03-15 16:00:00,
2013-03-15 11:05:00,64.5,41.5,30.08,South,171,0.2,3.0,43,0.00,,,0.00,WeatherDisplay:10.37,2013-03-15 16:05:00,
2013-03-15 11:10:00,65.0,40.7,30.08,South,182,4.1,8.1,41,0.00,,,0.00,WeatherDisplay:10.37,2013-03-15 16:10:00,
2013-03-15 11:15:00,65.6,40.6,30.08,SSW,200,0.2,1.1,40,0.00,,,0.00,WeatherDisplay:10.37,2013-03-15 16:15:00,
2013-03-15 11:20:00,66.4,40.7,30.08,WSW,240,0.9,4.0,39,0.00,,,0.00,WeatherDisplay:10.37,2013-03-15 16:20:00,
2013-03-15 11:25:00,66.9,40.5,30.08,North,5,0.0,1.1,38,0.00,,,0.00,WeatherDisplay:10.37,2013-03-15 16:25:00,
2013-03-15 11:30:00,67.4,40.9,30.07,SW,227,3.9,6.9,38,0.00,,,0.00,WeatherDisplay:10.37,2013-03-15 16:30:00,
2013-03-15 11:35:00,67.6,41.1,30.07,ESE,103,0.9,3.5,38,0.00,,,0.00,WeatherDisplay:10.37,2013-03-15 16:35:00,
2013-03-15 11:40:00,67.9,41.3,30.07,SE,133,1.0,3.5,38,0.00,,,0.00,WeatherDisplay:10.37,2013-03-15 16:40:00,
2013-03-15 11:45:00,67.9,41.3,30.07,NE,42,1.8,5.8,38,0.00,,,0.00,WeatherDisplay:10.37,2013-03-15 16:45:00,
2013-03-15 11:50:00,68.1,43.5,30.07,West,276,1.6,5.8,41,0.00,,,0.00,WeatherDisplay:10.37,2013-03-15 16:50:00,
2013-03-15 11:55:00,68.4,41.8,30.07,South,178,2.6,4.6,38,0.00,,,0.00,WeatherDisplay:10.37,2013-03-15 16:55:00,
2013-03-15 12:00:00,68.4,42.5,30.07,WNW,288,1.7,6.9,39,0.00,,,0.00,WeatherDisplay:10.37,2013-03-15 17:00:00,
2013-03-15 12:05:00,68.9,42.2,30.07,SW,221,1.4,5.0,38,0.00,,,0.00,WeatherDisplay:10.37,2013-03-15 17:05:00,
2013-03-15 12:10:00,69.6,43.5,30.07,SW,217,1.6,5.8,39,0.00,,,0.00,WeatherDisplay:10.37,2013-03-15 17:10:00,
2013-03-15 12:15:00,70.1,41.9,30.06,WSW,254,2.4,6.9,36,0.00,,,0.00,WeatherDisplay:10.37,2013-03-15 17:15:00,
2013-03-15 12:20:00,69.8,42.3,30.06,NE,52,0.6,3.5,37,0.00,,,0.00,WeatherDisplay:10.37,2013-03-15 17:20:00,
2013-03-15 12:25:00,69.8,43.7,30.06,SSW,202,2.7,5.8,39,0.00,,,0.00,WeatherDisplay:10.37,2013-03-15 17:25:00,
2013-03-15 12:30:00,69.9,42.4,30.05,SW,229,6.3,11.5,37,0.00,,,0.00,WeatherDisplay:10.37,2013-03-15 17:30:00,
2013-03-15 12:35:00,69.9,42.4,30.05,South,173,4.3,11.5,37,0.00,,,0.00,WeatherDisplay:10.37,2013-03-15 17:35:00,
2013-03-15 12:40:00,69.9,43.1,30.05,South,185,0.5,4.6,38,0.00,,,0.00,WeatherDisplay:10.37,2013-03-15 17:40:00,
2013-03-15 12:45:00,70.1,43.3,30.05,SW,224,2.0,5.8,38,0.00,,,0.00,WeatherDisplay:10.37,2013-03-15 17:45:00,
2013-03-15 12:50:00,70.6,42.3,30.05,NNW,331,0.6,4.0,36,0.00,,,0.00,WeatherDisplay:10.37,2013-03-15 17:50:00,
2013-03-15 12:55:00,70.9,44.0,30.05,SW,235,2.6,6.9,38,0.00,,,0.00,WeatherDisplay:10.37,2013-03-15 17:55:00,
2013-03-15 13:00:00,71.6,42.5,30.04,SW,216,0.1,1.1,35,0.00,,,0.00,WeatherDisplay:10.37,2013-03-15 18:00:00,
2013-03-15 13:05:00,72.3,43.1,30.04,SSW,200,4.3,9.2,35,0.00,,,0.00,WeatherDisplay:10.37,2013-03-15 18:05:00,
2013-03-15 13:10:00,71.8,43.4,30.04,South,169,4.9,8.1,36,0.00,,,0.00,WeatherDisplay:10.37,2013-03-15 18:10:00,
2013-03-15 13:15:00,71.8,42.7,30.04,WNW,303,3.9,11.5,35,0.00,,,0.00,WeatherDisplay:10.37,2013-03-15 18:15:00,
2013-03-15 13:20:00,71.8,43.4,30.04,SW,221,1.4,5.0,36,0.00,,,0.00,WeatherDisplay:10.37,2013-03-15 18:20:00,
2013-03-15 13:25:00,72.0,42.8,30.04,SSW,213,4.8,8.1,35,0.00,,,0.00,WeatherDisplay:10.37,2013-03-15 18:25:00,
2013-03-15 13:30:00,72.0,45.0,30.03,South,183,3.1,10.0,38,0.00,,,0.00,WeatherDisplay:10.37,2013-03-15 18:30:00,
2013-03-15 13:35:00,72.0,42.8,30.03,West,277,0.9,3.5,35,0.00,,,0.00,WeatherDisplay:10.37,2013-03-15 18:35:00,
2013-03-15 13:40:00,72.5,42.5,30.03,ENE,77,3.3,4.6,34,0.00,,,0.00,WeatherDisplay:10.37,2013-03-15 18:40:00,
2013-03-15 13:45:00,73.0,42.2,30.02,SW,223,4.0,6.9,33,0.00,,,0.00,WeatherDisplay:10.37,2013-03-15 18:45:00,
2013-03-15 13:50:00,73.0,41.4,30.02,ENE,69,3.0,8.1,32,0.00,,,0.00,WeatherDisplay:10.37,2013-03-15 18:50:00,
2013-03-15 13:55:00,72.7,41.9,30.02,SW,226,1.5,3.5,33,0.00,,,0.00,WeatherDisplay:10.37,2013-03-15 18:55:00,
2013-03-15 14:00:00,72.5,42.5,30.01,NNW,330,1.7,11.0,34,0.00,,,0.00,WeatherDisplay:10.37,2013-03-15 19:00:00,
2013-03-15 14:05:00,72.8,42.8,30.01,NE,35,0.5,3.5,34,0.00,,,0.00,WeatherDisplay:10.37,2013-03-15 19:05:00,
2013-03-15 14:10:00,73.5,43.4,30.01,SSE,161,5.5,11.5,34,0.00,,,0.00,WeatherDisplay:10.37,2013-03-15 19:10:00,
2013-03-15 14:15:00,73.7,42.8,30.00,SW,217,2.3,5.8,33,0.00,,,0.00,WeatherDisplay:10.37,2013-03-15 19:15:00,
2013-03-15 14:20:00,74.0,43.8,30.00,South,170,4.8,10.4,34,0.00,,,0.00,WeatherDisplay:10.37,2013-03-15 19:20:00,
2013-03-15 14:25:00,73.9,41.3,30.00,South,178,5.0,8.1,31,0.00,,,0.00,WeatherDisplay:10.37,2013-03-15 19:25:00,
2013-03-15 14:30:00,74.0,43.1,30.00,WNW,303,3.7,10.4,33,0.00,,,0.00,WeatherDisplay:10.37,2013-03-15 19:30:00,
2013-03-15 14:35:00,74.6,42.8,30.00,SW,215,3.9,6.9,32,0.00,,,0.00,WeatherDisplay:10.37,2013-03-15 19:35:00,
2013-03-15 14:40:00,74.9,43.0,30.00,SW,221,2.3,9.0,32,0.00,,,0.00,WeatherDisplay:10.37,2013-03-15 19:40:00,
2013-03-15 14:45:00,75.3,44.2,29.98,East,101,1.0,2.3,33,0.00,,,0.00,WeatherDisplay:10.37,2013-03-15 19:45:00,
2013-03-15 14:50:00,75.6,42.0,29.98,West,277,1.9,4.0,30,0.00,,,0.00,WeatherDisplay:10.37,2013-03-15 19:50:00,
2013-03-15 14:55:00,75.4,41.8,29.98,South,178,3.7,10.4,30,0.00,,,0.00,WeatherDisplay:10.37,2013-03-15 19:55:00,
2013-03-15 15:00:00,75.4,42.7,29.98,SSW,205,5.9,11.5,31,0.00,,,0.00,WeatherDisplay:10.37,2013-03-15 20:00:00,
2013-03-15 15:05:00,74.9,40.5,29.98,SSW,202,3.3,11.5,29,0.00,,,0.00,WeatherDisplay:10.37,2013-03-15 20:05:00,
2013-03-15 15:10:00,74.7,39.4,29.98,WNW,289,2.4,5.8,28,0.00,,,0.00,WeatherDisplay:10.37,2013-03-15 20:10:00,
2013-03-15 15:15:00,74.6,40.2,29.98,SE,144,3.9,11.5,29,0.00,,,0.00,WeatherDisplay:10.37,2013-03-15 20:15:00,
2013-03-15 15:20:00,74.9,39.6,29.98,NNE,18,4.8,15.0,28,0.00,,,0.00,WeatherDisplay:10.37,2013-03-15 20:20:00,
2013-03-15 15:25:00,74.6,39.3,29.98,East,100,5.0,11.5,28,0.00,,,0.00,WeatherDisplay:10.37,2013-03-15 20:25:00,
2013-03-15 15:30:00,74.6,42.0,29.96,SSW,209,0.2,2.0,31,0.00,,,0.00,WeatherDisplay:10.37,2013-03-15 20:30:00,
2013-03-15 15:35:00,75.1,42.4,29.96,SW,223,1.3,4.6,31,0.00,,,0.00,WeatherDisplay:10.37,2013-03-15 20:35:00,
2013-03-15 15:40:00,75.6,40.2,29.96,South,182,4.0,9.2,28,0.00,,,0.00,WeatherDisplay:10.37,2013-03-15 20:40:00,
2013-03-15 15:45:00,75.4,39.1,29.96,WSW,252,2.8,5.8,27,0.00,,,0.00,WeatherDisplay:10.37,2013-03-15 20:45:00,
2013-03-15 15:50:00,75.1,42.4,29.96,WNW,285,2.2,9.0,31,0.00,,,0.00,WeatherDisplay:10.37,2013-03-15 20:50:00,
2013-03-15 15:55:00,74.9,40.5,29.96,SSW,192,4.8,9.2,29,0.00,,,0.00,WeatherDisplay:10.37,2013-03-15 20:55:00,
2013-03-15 16:00:00,74.7,41.2,29.96,South,173,4.6,9.2,30,0.00,,,0.00,WeatherDisplay:10.37,2013-03-15 21:00:00,
2013-03-15 16:05:00,74.6,42.0,29.96,NW,311,0.6,8.0,31,0.00,,,0.00,WeatherDisplay:10.37,2013-03-15 21:05:00,
2013-03-15 16:10:00,74.4,40.9,29.96,WSW,243,3.2,6.9,30,0.00,,,0.00,WeatherDisplay:10.37,2013-03-15 21:10:00,
2013-03-15 16:15:00,74.2,39.9,29.95,SSE,161,4.9,9.2,29,0.00,,,0.00,WeatherDisplay:10.37,2013-03-15 21:15:00,
2013-03-15 16:20:00,74.0,40.6,29.95,SSW,213,1.6,4.6,30,0.00,,,0.00,WeatherDisplay:10.37,2013-03-15 21:20:00,
2013-03-15 16:25:00,74.0,38.8,29.95,South,185,2.5,7.0,28,0.00,,,0.00,WeatherDisplay:10.37,2013-03-15 21:25:00,
2013-03-15 16:30:00,73.9,41.3,29.94,South,171,1.6,4.6,31,0.00,,,0.00,WeatherDisplay:10.37,2013-03-15 21:30:00,
2013-03-15 16:35:00,73.7,41.2,29.94,SSW,209,7.5,11.5,31,0.00,,,0.00,WeatherDisplay:10.37,2013-03-15 21:35:00,
2013-03-15 16:40:00,73.7,41.2,29.94,SSW,204,2.7,5.8,31,0.00,,,0.00,WeatherDisplay:10.37,2013-03-15 21:40:00,
2013-03-15 16:45:00,73.9,40.5,29.94,WNW,286,2.1,11.5,30,0.00,,,0.00,WeatherDisplay:10.37,2013-03-15 21:45:00,
2013-03-15 16:50:00,74.2,39.0,29.94,SW,219,3.1,8.1,28,0.00,,,0.00,WeatherDisplay:10.37,2013-03-15 21:50:00,
2013-03-15 16:55:00,74.4,40.9,29.94,ESE,123,0.4,2.0,30,0.00,,,0.00,WeatherDisplay:10.37,2013-03-15 21:55:00,
2013-03-15 17:00:00,74.4,40.1,29.93,WSW,246,4.8,10.4,29,0.00,,,0.00,WeatherDisplay:10.37,2013-03-15 22:00:00,
2013-03-15 17:05:00,73.5,39.3,29.93,SSW,198,7.0,11.5,29,0.00,,,0.00,WeatherDisplay:10.37,2013-03-15 22:05:00,
2013-03-15 17:10:00,72.8,39.5,29.93,South,184,4.4,8.1,30,0.00,,,0.00,WeatherDisplay:10.37,2013-03-15 22:10:00,
2013-03-15 17:15:00,72.5,39.3,29.93,South,187,5.8,7.0,30,0.00,,,0.00,WeatherDisplay:10.37,2013-03-15 22:15:00,
2013-03-15 17:20:00,72.3,40.0,29.93,SSE,150,3.1,5.8,31,0.00,,,0.00,WeatherDisplay:10.37,2013-03-15 22:20:00,
2013-03-15 17:25:00,72.1,39.8,29.93,SSW,194,5.0,6.9,31,0.00,,,0.00,WeatherDisplay:10.37,2013-03-15 22:25:00,
2013-03-15 17:30:00,72.5,41.0,29.93,South,173,1.6,6.0,32,0.00,,,0.00,WeatherDisplay:10.37,2013-03-15 22:30:00,
2013-03-15 17:35:00,72.5,40.1,29.93,SW,215,2.4,6.9,31,0.00,,,0.00,WeatherDisplay:10.37,2013-03-15 22:35:00,
2013-03-15 17:40:00,72.0,40.5,29.93,SSE,165,1.1,3.5,32,0.00,,,0.00,WeatherDisplay:10.37,2013-03-15 22:40:00,
2013-03-15 17:45:00,71.5,39.3,29.93,South,180,4.1,5.8,31,0.00,,,0.00,WeatherDisplay:10.37,2013-03-15 22:45:00,
2013-03-15 17:50:00,70.9,40.3,29.93,SW,223,0.9,3.5,33,0.00,,,0.00,WeatherDisplay:10.37,2013-03-15 22:50:00,
2013-03-15 17:55:00,70.4,39.9,29.93,South,178,3.8,11.5,33,0.00,,,0.00,WeatherDisplay:10.37,2013-03-15 22:55:00,
2013-03-15 18:00:00,70.1,39.6,29.93,SSW,192,2.3,6.9,33,0.00,,,0.00,WeatherDisplay:10.37,2013-03-15 23:00:00,
2013-03-15 18:05:00,69.8,39.4,29.93,SSE,167,0.8,4.6,33,0.00,,,0.00,WeatherDisplay:10.37,2013-03-15 23:05:00,
2013-03-15 18:10:00,69.4,40.5,29.93,WSW,246,1.3,3.5,35,0.00,,,0.00,WeatherDisplay:10.37,2013-03-15 23:10:00,
2013-03-15 18:15:00,69.3,38.9,29.93,SSW,198,2.5,10.4,33,0.00,,,0.00,WeatherDisplay:10.37,2013-03-15 23:15:00,
2013-03-15 18:20:00,69.1,38.8,29.93,SW,223,1.9,6.9,33,0.00,,,0.00,WeatherDisplay:10.37,2013-03-15 23:20:00,
2013-03-15 18:25:00,68.9,38.6,29.93,SW,226,7.8,11.5,33,0.00,,,0.00,WeatherDisplay:10.37,2013-03-15 23:25:00,
2013-03-15 18:30:00,68.9,38.6,29.93,West,259,2.1,4.6,33,0.00,,,0.00,WeatherDisplay:10.37,2013-03-15 23:30:00,
2013-03-15 18:35:00,68.6,39.1,29.93,SSW,205,5.1,9.2,34,0.00,,,0.00,WeatherDisplay:10.37,2013-03-15 23:35:00,
2013-03-15 18:40:00,68.3,39.6,29.93,SW,219,2.0,4.6,35,0.00,,,0.00,WeatherDisplay:10.37,2013-03-15 23:40:00,
2013-03-15 18:45:00,67.9,39.9,29.93,South,183,2.1,4.6,36,0.00,,,0.00,WeatherDisplay:10.37,2013-03-15 23:45:00,
2013-03-15 18:50:00,67.4,40.2,29.93,SSE,163,0.9,4.0,37,0.00,,,0.00,WeatherDisplay:10.37,2013-03-15 23:50:00,
2013-03-15 18:55:00,67.3,39.4,29.93,South,190,1.0,3.5,36,0.00,,,0.00,WeatherDisplay:10.37,2013-03-15 23:55:00,
2013-03-15 19:00:00,66.9,39.1,29.93,SSW,205,3.3,4.6,36,0.00,,,0.00,WeatherDisplay:10.37,2013-03-16 00:00:00,
2013-03-15 19:05:00,66.8,40.4,29.93,WSW,252,0.0,0.0,38,0.00,,,0.00,WeatherDisplay:10.37,2013-03-16 00:05:00,
2013-03-15 19:10:00,66.4,39.3,29.93,SSW,196,1.2,3.0,37,0.00,,,0.00,WeatherDisplay:10.37,2013-03-16 00:10:00,
2013-03-15 19:15:00,66.1,40.4,29.93,South,191,0.0,1.1,39,0.00,,,0.00,WeatherDisplay:10.37,2013-03-16 00:15:00,
2013-03-15 19:20:00,65.6,39.3,29.93,SSW,209,0.1,1.1,38,0.00,,,0.00,WeatherDisplay:10.37,2013-03-16 00:20:00,
2013-03-15 19:25:00,65.5,39.9,29.93,SSE,158,0.0,2.3,39,0.00,,,0.00,WeatherDisplay:10.37,2013-03-16 00:25:00,
2013-03-15 19:30:00,65.2,40.3,29.93,West,279,0.0,0.0,40,0.00,,,0.00,WeatherDisplay:10.37,2013-03-16 00:30:00,
2013-03-15 19:35:00,64.5,40.3,29.93,WSW,257,0.3,2.3,41,0.00,,,0.00,WeatherDisplay:10.37,2013-03-16 00:35:00,
2013-03-15 19:40:00,64.2,40.0,29.93,WSW,257,0.0,0.0,41,0.00,,,0.00,WeatherDisplay:10.37,2013-03-16 00:40:00,
2013-03-15 19:45:00,63.7,40.2,29.93,South,182,0.1,2.3,42,0.00,,,0.00,WeatherDisplay:10.37,2013-03-16 00:45:00,
2013-03-15 19:50:00,63.4,40.5,29.93,South,182,0.9,2.3,43,0.00,,,0.00,WeatherDisplay:10.37,2013-03-16 00:50:00,
2013-03-15 19:55:00,63.2,40.3,29.93,SSW,198,1.3,4.6,43,0.00,,,0.00,WeatherDisplay:10.37,2013-03-16 00:55:00,
2013-03-15 20:00:00,63.2,40.9,29.92,SSE,163,0.0,1.1,44,0.00,,,0.00,WeatherDisplay:10.37,2013-03-16 01:00:00,
2013-03-15 20:05:00,62.9,41.2,29.92,SSW,211,0.0,0.0,45,0.00,,,0.00,WeatherDisplay:10.37,2013-03-16 01:05:00,
2013-03-15 20:10:00,62.6,40.4,29.92,SSW,194,0.0,1.1,44,0.00,,,0.00,WeatherDisplay:10.37,2013-03-16 01:10:00,
2013-03-15 20:15:00,62.3,41.2,29.93,SSW,194,0.0,0.0,46,0.00,,,0.00,WeatherDisplay:10.37,2013-03-16 01:15:00,
2013-03-15 20:20:00,62.0,41.5,29.93,SSW,194,0.6,3.0,47,0.00,,,0.00,WeatherDisplay:10.37,2013-03-16 01:20:00,
2013-03-15 20:25:00,61.6,41.2,29.93,SSE,150,0.5,3.5,47,0.00,,,0.00,WeatherDisplay:10.37,2013-03-16 01:25:00,
2013-03-15 20:30:00,61.5,41.1,29.93,SW,216,0.1,1.1,47,0.00,,,0.00,WeatherDisplay:10.37,2013-03-16 01:30:00,
2013-03-15 20:35:00,61.3,41.4,29.93,SW,214,0.6,3.5,48,0.00,,,0.00,WeatherDisplay:10.37,2013-03-16 01:35:00,
2013-03-15 20:40:00,61.2,40.8,29.93,South,176,1.9,3.5,47,0.00,,,0.00,WeatherDisplay:10.37,2013-03-16 01:40:00,
2013-03-15 20:45:00,61.0,41.2,29.92,South,176,0.0,1.0,48,0.00,,,0.00,WeatherDisplay:10.37,2013-03-16 01:45:00,
2013-03-15 20:50:00,61.0,41.7,29.92,South,180,0.0,1.1,49,0.00,,,0.00,WeatherDisplay:10.37,2013-03-16 01:50:00,
2013-03-15 20:55:00,60.9,41.1,29.92,SE,133,2.0,3.5,48,0.00,,,0.00,WeatherDisplay:10.37,2013-03-16 01:55:00,
2013-03-15 21:00:00,61.2,40.8,29.92,SSE,166,1.1,4.6,47,0.00,,,0.00,WeatherDisplay:10.37,2013-03-16 02:00:00,
2013-03-15 21:05:00,61.5,40.5,29.92,South,184,2.1,5.8,46,0.00,,,0.00,WeatherDisplay:10.37,2013-03-16 02:05:00,
2013-03-15 21:10:00,61.8,40.2,29.92,South,190,1.7,3.5,45,0.00,,,0.00,WeatherDisplay:10.37,2013-03-16 02:10:00,
2013-03-15 21:15:00,62.0,41.0,29.92,South,184,2.1,3.5,46,0.00,,,0.00,WeatherDisplay:10.37,2013-03-16 02:15:00,
2013-03-15 21:20:00,62.0,41.0,29.92,SW,227,0.3,1.1,46,0.00,,,0.00,WeatherDisplay:10.37,2013-03-16 02:20:00,
2013-03-15 21:25:00,62.0,41.0,29.92,South,173,0.8,3.5,46,0.00,,,0.00,WeatherDisplay:10.37,2013-03-16 02:25:00,
2013-03-15 21:30:00,62.1,41.1,29.92,South,173,1.4,3.5,46,0.00,,,0.00,WeatherDisplay:10.37,2013-03-16 02:30:00,
2013-03-15 21:35:00,62.0,41.0,29.92,SW,230,1.9,6.9,46,0.00,,,0.00,WeatherDisplay:10.37,2013-03-16 02:35:00,
2013-03-15 21:40:00,62.0,40.4,29.92,SE,142,3.8,12.0,45,0.00,,,0.00,WeatherDisplay:10.37,2013-03-16 02:40:00,
2013-03-15 21:45:00,62.3,40.7,29.92,SE,134,2.6,4.6,45,0.00,,,0.00,WeatherDisplay:10.37,2013-03-16 02:45:00,
2013-03-15 21:50:00,62.1,40.5,29.92,South,173,0.6,6.0,45,0.00,,,0.00,WeatherDisplay:10.37,2013-03-16 02:50:00,
2013-03-15 21:55:00,62.4,40.2,29.92,SSE,155,2.9,5.8,44,0.00,,,0.00,WeatherDisplay:10.37,2013-03-16 02:55:00,
2013-03-15 22:00:00,62.4,40.2,29.92,South,182,3.6,6.9,44,0.00,,,0.00,WeatherDisplay:10.37,2013-03-16 03:00:00,
2013-03-15 22:05:00,62.4,40.2,29.92,SW,223,3.8,10.0,44,0.00,,,0.00,WeatherDisplay:10.37,2013-03-16 03:05:00,
2013-03-15 22:10:00,62.4,40.2,29.92,SSW,213,4.1,9.2,44,0.00,,,0.00,WeatherDisplay:10.37,2013-03-16 03:10:00,
2013-03-15 22:15:00,62.3,40.1,29.92,SW,218,1.3,3.5,44,0.00,,,0.00,WeatherDisplay:10.37,2013-03-16 03:15:00,
2013-03-15 22:20:00,62.3,40.1,29.92,SSW,203,1.6,3.5,44,0.00,,,0.00,WeatherDisplay:10.37,2013-03-16 03:20:00,
2013-03-15 22:25:00,62.3,40.1,29.92,SSW,192,5.1,8.1,44,0.00,,,0.00,WeatherDisplay:10.37,2013-03-16 03:25:00,
2013-03-15 22:30:00,62.1,40.5,29.91,SW,232,3.7,8.1,45,0.00,,,0.00,WeatherDisplay:10.37,2013-03-16 03:30:00,
2013-03-15 22:35:00,62.0,40.4,29.91,South,186,2.3,4.0,45,0.00,,,0.00,WeatherDisplay:10.37,2013-03-16 03:35:00,
2013-03-15 22:40:00,61.8,40.2,29.91,South,183,2.0,3.5,45,0.00,,,0.00,WeatherDisplay:10.37,2013-03-16 03:40:00,
2013-03-15 22:45:00,61.8,40.2,29.91,South,189,4.5,8.1,45,0.00,,,0.00,WeatherDisplay:10.37,2013-03-16 03:45:00,
2013-03-15 22:50:00,61.6,40.0,29.91,SSW,193,4.3,6.9,45,0.00,,,0.00,WeatherDisplay:10.37,2013-03-16 03:50:00,
2013-03-15 22:55:00,61.6,40.0,29.91,South,171,4.0,5.8,45,0.00,,,0.00,WeatherDisplay:10.37,2013-03-16 03:55:00,
2013-03-15 23:00:00,61.5,39.9,29.91,WSW,238,4.3,9.2,45,0.00,,,0.00,WeatherDisplay:10.37,2013-03-16 04:00:00,
2013-03-15 23:05:00,61.3,40.3,29.91,SSW,192,5.4,7.0,46,0.00,,,0.00,WeatherDisplay:10.37,2013-03-16 04:05:00,
2013-03-15 23:10:00,61.3,39.8,29.91,SSE,164,4.5,9.2,45,0.00,,,0.00,WeatherDisplay:10.37,2013-03-16 04:10:00,
2013-03-15 23:15:00,61.2,40.2,29.91,South,173,3.9,4.6,46,0.00,,,0.00,WeatherDisplay:10.37,2013-03-16 04:15:00,
2013-03-15 23:20:00,61.0,40.6,29.91,SSE,165,3.3,6.9,47,0.00,,,0.00,WeatherDisplay:10.37,2013-03-16 04:20:00,
2013-03-15 23:25:00,60.9,40.5,29.91,South,187,4.8,10.4,47,0.00,,,0.00,WeatherDisplay:10.37,2013-03-16 04:25:00,
2013-03-15 23:30:00,60.7,40.3,29.90,South,178,3.5,4.6,47,0.00,,,0.00,WeatherDisplay:10.37,2013-03-16 04:30:00,
2013-03-15 23:35:00,60.4,40.6,29.90,South,178,2.7,6.9,48,0.00,,,0.00,WeatherDisplay:10.37,2013-03-16 04:35:00,
2013-03-15 23:40:00,60.2,40.4,29.90,SSW,213,3.5,6.9,48,0.00,,,0.00,WeatherDisplay:10.37,2013-03-16 04:40:00,
2013-03-15 23:45:00,59.9,40.7,29.90,South,184,2.9,5.8,49,0.00,,,0.00,WeatherDisplay:10.37,2013-03-16 04:45:00,
2013-03-15 23:50:00,59.5,40.8,29.90,SSW,200,3.4,7.0,50,0.00,,,0.00,WeatherDisplay:10.37,2013-03-16 04:50:00,
2013-03-15 23:55:00,59.3,40.7,29.90,SW,215,3.4,6.9,50,0.00,,,0.00,WeatherDisplay:10.37,2013-03-16 04:55:00,